Regional Weather Roundup
Issued by NWS Grand Forks, ND

Home | Current Version | Previous Version | Text Only | Print | Product List | Glossary Off
Versions: 1 2 3 4 5 6 7 8 9 10 11 12 13 14 15 16 17 18 19 20 21 22 23 24 25 26 27 28 29 30 31 32 33 34 35 36 37 38 39 40 41 42 43 44 45 46 47 48 49 50

000
ASUS43 KFGF 231431
RWRFGF
PRAIRIE TO PINES  WEATHER ROUNDUP
NATIONAL WEATHER SERVICE EASTERN NORTH DAKOTA/GRAND FORKS ND
900 AM CDT TUE SEP 23 2014

 **SATELLITE DATA USED TO AUGMENT SKY COVER AT AUTOMATED STATIONS**
 *****  WEATHER ACROSS EASTERN NORTH DAKOTA  *****

CITY           SKY/WX    TMP DP  RH WIND       PRES   REMARKS
GRAND FORKS    SUNNY     57  50  77 S14       30.02S
GRAND FRKS AFB SUNNY     56  52  86 S12       30.02S
GRAND FRKS NWS   N/A     59 N/A N/A S14         N/A
DEVILS LAKE    SUNNY     61  50  67 S10       29.96S
FARGO          SUNNY     59  49  69 SE14      30.05S
WAHPETON ARPT  MOSUNNY   57  46  67 SE14      30.08S
$$

 ***** WEATHER ACROSS CENTRAL AND WESTERN NORTH DAKOTA  *****

CITY           SKY/WX    TMP DP  RH WIND       PRES   REMARKS
BISMARCK       SUNNY     63  56  78 SE6       29.93R
MINOT          SUNNY     55  50  83 SE7       29.88S
JAMESTOWN      MOSUNNY   59  52  77 S14       29.99R
MINOT AFB      SUNNY     55  55  99 SE9       29.88S
GARRISON         N/A     58  55  90 S8        29.90R
WILLISTON      SUNNY     55  49  80 NE3       29.85S
DICKINSON      SUNNY     54  52  93 S8        29.87S
HETTINGER      MOSUNNY   56  54  93 SE6       29.92R
$$

 *****  OTHER AIRPORT OBSERVATIONS IN OUR AREA  *****

CITY           SKY/WX    TMP DP  RH WIND       PRES   REMARKS
WALHALLA       FAIR      55  54  94 SE14      29.98R
GRAFTON AIRPOR FAIR      57  50  77 S17       30.01S
VALLEY CITY AR FAIR      59  55  88 S12       30.02R
CANDO          FAIR      59  54  82 S13       29.96R
CAVALIER APRT  FAIR      55  50  82 S12       29.99S
GWINNER        PTSUNNY   61  55  82 SE9       30.05R
SHEYENNE NWR     N/A     57  51  81 SE7       29.95S
ROLLA          FAIR      57  54  88 S14       29.94S
 ***** THE ABOVE OBSERVATIONS ARE NON NWS ARE NOT QUALITY
       CONTROLLED AND MAY MIS-REPORT RAIN FOR SNOW...
$$

  *****  WEATHER ACROSS NORTHERN MINNESOTA  *****

CITY           SKY/WX    TMP DP  RH WIND       PRES   REMARKS
FLAG ISLAND    SUNNY     57  54  88 SE13      30.06S
WARROAD        SUNNY     59  54  82 S7        30.07S
ROSEAU         SUNNY     59  52  77 S12       30.05F
HALLOCK        SUNNY     59  52  77 S16       30.01S
THF RVR FALLS  SUNNY     59  52  77 S10       30.06S
BAUDETTE       SUNNY     54  50  86 VRB6      30.09S
WASKISH        SUNNY     61  52  72 CALM      30.11S
CROOKSTON      SUNNY     61  52  72 S14       30.05S
STEPHEN NDAWN    N/A     61  52  72 S12         N/A
GREENBUSH NDAW   N/A     57  52  82 S9          N/A
$$
  *****  WEATHER ACROSS CENTRAL AND WEST MINNESOTA  *****

CITY           SKY/WX    TMP DP  RH WIND       PRES   REMARKS
FOSSTON        SUNNY     61  52  72 SE8       30.09S
BEMIDJI        SUNNY     56  49  78 S10       30.12S
PARK RAPIDS    SUNNY     54  49  83 SE9       30.13S
ELBOW LAKE     FAIR      57  51  78 SE15      30.11S
WADENA         SUNNY     57  52  82 SE9       30.13S
DETROIT LAKES  SUNNY     57  52  82 SE9       30.11S
MOORHEAD       SUNNY     61  54  77 S15       30.07S
FERGUS FALLS   MOSUNNY   61  48  63 S13       30.10S
MORRIS MN      MOSUNNY   57  52  82 SE13      30.11S
STAPLES        SUNNY     55  52  88 SE3       30.15S
$$
  *****  WEATHER ELSEWHERE ACROSS MINNESOTA  *****

CITY           SKY/WX    TMP DP  RH WIND       PRES   REMARKS
DULUTH         SUNNY     59  50  72 SW3       30.21R
INTRNTL FALLS  SUNNY     54  50  86 VRB3      30.14S
ELY            SUNNY     55  52  88 CALM      30.20R
CLOQUET        SUNNY     55  52  88 S5        30.21R
WHEATON        MOSUNNY   54  48  82 SE12      30.10S
BRAINERD       SUNNY     56  51  84 S6        30.17S
HIBBING        SUNNY     50  47  89 SE3       30.20R
ALEXANDRIA     MOSUNNY   56  50  80 S12       30.15S
SAINT CLOUD    MOSUNNY   56  51  84 SE6       30.19R
MINNEAPOLIS    MOSUNNY   57  50  77 SE6       30.23R
$$

  *****  WEATHER ACROSS SOUTH DAKOTA  *****

CITY           SKY/WX    TMP DP  RH WIND       PRES   REMARKS
SIOUX FALLS    LGT RAIN  57  54  89 S12       30.15R
BROOKINGS      NOT AVBL
WATERTOWN      CLOUDY    57  51  80 S10       30.09R
HURON          RAIN      58  56  93 SE13G25   30.03S FOG
SISSETON         N/A     54  51  90 SE7       30.06S
ABERDEEN       LGT RAIN  59  56  89 SE8       30.03R
MITCHELL       RAIN      58  57  97 SE16      30.07R FOG
PIERRE         PTSUNNY   61  54  77 SE17      29.92S
MOBRIDGE       CLOUDY    63  57  81 SE12      29.92F
RAPID CITY     PTSUNNY   59  55  87 E5        29.93R
$$

  *****  SOME WEATHER IN NEARBY STATES *****

CITY           SKY/WX    TMP DP  RH WIND       PRES   REMARKS
GLASGOW MT     CLEAR     47  45  93 W5        29.86R
GREAT FALLS MT CLEAR     59  47  64 SW13      29.98R
CHEYENNE WY    MOSUNNY   57  45  64 W8        30.17S
SCOTTSBLUFF NE SUNNY     56  51  84 N5        30.03R
OMAHA NE       CLOUDY    61  53  75 SE10      30.20R
DES MOINES IA  CLOUDY    57  50  77 S6        30.27R
DAVENPORT IA   SUNNY     57  46  66 S7        30.33R
CHICAGO IL     SUNNY     56  45  66 W8        30.34R
EAU CLAIRE WI  SUNNY     54  51  90 CALM      30.26R
LA CROSSE WI   MOSUNNY   54  52  93 E6        30.29R
$$

  *****  SOME NATIONAL WEATHER *****

CITY           SKY/WX    TMP DP  RH WIND       PRES   REMARKS
LA GUARDIA NY  MOSUNNY   59  41  51 N3        30.32R
RALEIGH NC     CLOUDY    58  46  64 NE8       30.32S
ATLANTA GA     MOSUNNY   68  53  58 E17       30.21R
NEW ORLEANS LA MOSUNNY   73  57  57 E14       30.10R
OKLAHOMA CITY  MOSUNNY   63  54  72 S9        30.22R
ALBUQUERQUE NM MOSUNNY   60  56  86 CALM      30.28R
SALT LAKE CITY PTCLDY    61  53  75 S7        30.14R
LOS ANGELES CA MOCLDY    65  62  91 CALM      29.96R FOG
BOISE ID       CLOUDY    64  51  62 SE13      30.01S
SEATTLE WA     MOCLDY    60  57  89 CALM      29.85F
$$

*** WEATHER ACROSS MANITOBA...SASKATCHEWAN AND ONTARIO ***
                ***ONTARIO***

CITY           SKY/WX    TMP DP  RH WIND       PRES   REMARKS
GERALDTON      DRZL/FOG  48  48 100 SE5       30.21R VSB 3/8
THUNDER BAY    SUNNY     61  52  72 CALM      30.18R
SIOUX LOOKOUT  MOSUNNY   57  52  82 S6        30.12S
TORONTO        MOSUNNY   63  48  59 W12G18    30.27S
BIG TROUT LK   CLOUDY    48  45  87 S14       30.06F FOG
PICKLE LAKE    MOSUNNY   54  52  94 S8        30.10S
DRYDEN         SUNNY     55  50  82 S9        30.13R
KENORA         SUNNY     55  50  82 S9        30.09S
$$
                *** MANITOBA***

CITY           SKY/WX    TMP DP  RH WIND       PRES   REMARKS
BRANDON        SUNNY     55  50  82 SE6       29.91S
DAUPHIN        SUNNY     64  52  63 W5        29.87R
ISLAND LAKE    MOSUNNY   57  50  77 S6        29.91S
PILOT MOUND    NOT AVBL
THE PAS        MOSUNNY   55  50  82 S9        29.72S
THOMPSON       PTSUNNY   52  50  93 S3        29.73F
WINNIPEG       SUNNY     57  50  77 S16       29.98S
LYNN LAKE      SUNNY     50  48  93 VRB2      29.64S
CHURCHILL      CLOUDY    41  39  93 S21G30    29.69F FOG
GILLAM         PTSUNNY   50  48  93 S12       29.79F
$$
                ***SASKATCHEWAN***

CITY           SKY/WX    TMP DP  RH WIND       PRES   REMARKS
ESTEVAN        SUNNY     52  50  93 SE6       29.87R
KINDERSLEY     PTCLDY    48  46  93 SW5       29.80R
LLOYDMINSTER   PTCLDY    54  45  71 NW12      29.78R
PRINCE ALBERT  MOCLDY    46  46 100 VRB2      29.72S
REGINA         MOSUNNY   52  48  87 SE10      29.83
YORKTON        SUNNY     54  48  82 S12       29.83S
N. BATTLEFORD  CLEAR     50  46  87 W6        29.76R
LA RONGE       MOCLDY    54  48  82 SW5       29.67
SASKATOON      PTCLDY    52  48  87 S6        29.76S
SWIFT CURRENT  CLEAR     57  46  67 W12       29.83R
$$
NOTE: THESE ARE AUTOMATED STATIONS WITH LIMITED QUALITY CONTROL
      "FAIR" INDICATES FEW OR NO CLOUDS BELOW 12,000 FEET WITH NO
      SIGNIFICANT WEATHER AND/OR OBSTRUCTIONS TO VISIBILITY.
      SKY/WX - SKY CONDITION AND SIGNIFICANT WEATHER.
      TMP - AIR TEMPERATURE.    DP   - DEWPOINT TEMPERATURE.
      RH  - RELATIVE HUMIDITY.  PRES - PRESSURE.
      HX  - HEAT INDEX.         WCI  - WIND CHILL INDEX.
$



USA.gov is the U.S. government's official web portal to all federal, state and local government web resources and services.